Date String (YYYY-MM-DD hh:mm:ss) UTC,Instrument flags,absolute air pressure of the measurement (hPa),sample flow rate (lpm),inlet stack bypass flow (lpm),air temperature of the measurement (°C),ambient temperature measured by the external sensor (°C),aerosol sample conditioner tube jacket temperature (°C),OPC LED temperature (°C),internal box temperature (°C),relative humidity of the measurement (%),span deviation,mass concentration of particles derived from Lorenz-Mie calculation of OPC scattering (μg/m³),mass concentration of particles derived from Lorenz-Mie calculation of OPC scattering (μg/m³),mass concentration of particles derived from Lorenz-Mie calculation of OPC scattering (μg/m³)
DateTimeUTC,F1_M11,P_M11,Q1_M11,Q2_M11,T1_M11,T2_M11,T3_M11,T4_M11,T5_M11,U1_M11,ZSPAN_M11,X2_M11,X0_M11,X1_M11
2024-04-22 12:00:00,SystemResetWarning,0824.4,4.99,000.00,023.9,023.0,000.0,032.4,025.6,012.6,0000.0,0002.65,0008.52,0001.71
2024-04-22 12:01:00,SystemResetWarning,0824.3,4.99,000.00,023.9,023.0,000.0,032.4,025.6,012.6,0000.0,0002.68,0008.51,0001.70
2024-04-22 12:02:00,SystemResetWarning,0824.4,5.00,000.00,023.9,023.0,000.0,032.4,025.6,012.7,0000.0,0002.69,0008.48,0001.71
2024-04-22 12:03:00,SystemResetWarning,0824.4,5.02,000.00,023.9,023.0,000.0,032.4,025.6,013.0,0000.0,0002.67,0008.43,0001.71
2024-04-22 12:04:00,SystemResetWarning,0824.4,5.00,000.00,023.9,023.0,000.0,032.4,025.6,013.2,0000.0,0002.72,0008.48,0001.72
2024-04-22 12:05:00,SystemResetWarning,0824.4,4.99,000.00,023.9,023.0,000.0,032.4,025.6,013.7,0000.0,0002.74,0008.66,0001.71
2024-04-22 12:06:00,SystemResetWarning,0824.5,4.99,000.00,023.9,023.1,000.0,032.4,025.6,014.2,0000.0,0002.77,0008.72,0001.71
2024-04-22 12:07:00,SystemResetWarning,0824.4,5.00,000.00,023.9,023.1,000.0,032.4,025.6,014.1,0000.0,0002.81,0008.32,0001.72
2024-04-22 12:08:00,SystemResetWarning,0824.4,5.01,000.00,023.9,023.1,000.0,032.4,025.6,014.0,0000.0,0002.83,0007.13,0001.73
2024-04-22 12:09:00,SystemResetWarning,0824.3,5.01,000.00,023.9,023.1,000.0,032.4,025.6,013.9,0000.0,0002.80,0005.52,0001.76
2024-04-22 12:10:00,SystemResetWarning,0824.4,4.99,000.00,023.9,023.1,000.0,032.4,025.6,013.7,0000.0,0002.72,0005.72,0001.76
2024-04-22 12:11:00,SystemResetWarning,0824.4,4.99,000.00,023.9,023.1,000.0,032.4,025.7,013.7,0000.0,0002.67,0006.59,0001.77
2024-04-22 12:12:00,SystemResetWarning,0824.4,5.00,000.00,023.9,023.2,000.0,032.4,025.7,013.7,0000.0,0002.61,0006.90,0001.78
2024-04-22 12:13:00,SystemResetWarning,0824.4,5.01,000.00,023.9,023.2,000.0,032.4,025.7,013.0,0000.0,0002.62,0007.01,0001.78
2024-04-22 12:14:00,SystemResetWarning,0824.4,5.01,000.00,023.9,023.2,000.0,032.4,025.7,013.0,0000.0,0002.71,0007.83,0001.78
2024-04-22 12:15:00,SystemResetWarning,0824.4,5.00,000.00,023.9,023.2,000.0,032.4,025.7,012.7,0000.0,0002.72,0007.90,0001.78
2024-04-22 12:16:00,SystemResetWarning,0824.4,5.00,000.00,023.9,023.2,000.0,032.4,025.7,012.5,0000.0,0002.67,0007.69,0001.79
2024-04-22 12:17:00,SystemResetWarning,0824.4,4.99,000.00,023.9,023.2,000.0,032.4,025.7,012.8,0000.0,0002.70,0007.72,0001.78
2024-04-22 12:18:00,SystemResetWarning,0824.4,5.00,000.00,023.9,023.2,000.0,032.4,025.7,012.9,0000.0,0002.71,0008.14,0001.77
2024-04-22 12:19:00,SystemResetWarning,0824.4,5.00,000.00,023.9,023.3,000.0,032.4,025.7,012.8,0000.0,0002.67,0008.61,0001.75
2024-04-22 12:20:00,SystemResetWarning,0824.5,5.00,000.00,024.0,023.3,000.0,032.4,025.8,012.7,0000.0,0002.65,0008.56,0001.73
2024-04-22 12:21:00,SystemResetWarning,0824.5,5.00,000.00,024.0,023.3,000.0,032.4,025.8,012.8,0000.0,0002.67,0008.55,0001.73
2024-04-22 12:22:00,SystemResetWarning,0824.6,5.00,000.00,024.0,023.3,000.0,032.4,025.8,012.9,0000.0,0002.68,0008.82,0001.74
2024-04-22 12:23:00,SystemResetWarning,0824.7,5.01,000.00,024.0,023.3,000.0,032.4,025.7,012.9,0000.0,0002.66,0008.55,0001.73
2024-04-22 12:24:00,SystemResetWarning,0824.7,5.00,000.00,024.0,023.3,000.0,032.4,025.8,013.1,0000.0,0002.64,0008.42,0001.73
2024-04-22 12:25:00,SystemResetWarning,0824.7,5.00,000.00,024.0,023.3,000.0,032.4,025.8,013.3,0000.0,0002.58,0008.02,0001.73
2024-04-22 12:26:00,SystemResetWarning,0824.6,5.01,000.00,024.0,023.3,000.0,032.4,025.8,013.2,0000.0,0002.55,0007.61,0001.72
2024-04-22 12:27:00,SystemResetWarning,0824.6,4.99,000.00,024.0,023.3,000.0,032.4,025.8,013.3,0000.0,0002.51,0007.65,0001.72
2024-04-22 12:28:00,SystemResetWarning,0824.6,4.99,000.00,024.0,023.3,000.0,032.4,025.8,013.4,0000.0,0002.54,0008.01,0001.73
2024-04-22 12:29:00,SystemResetWarning,0824.5,5.00,000.00,024.0,023.3,000.0,032.4,025.8,013.2,0000.0,0002.48,0007.80,0001.73
2024-04-22 12:30:00,SystemResetWarning,0824.5,5.00,000.00,024.0,023.3,000.0,032.4,025.8,013.0,0000.0,0002.48,0006.78,0001.74
2024-04-22 12:31:00,SystemResetWarning,0824.4,5.00,000.00,024.0,023.2,000.0,032.4,025.8,012.7,0000.0,0002.50,0007.62,0001.74
2024-04-22 12:32:00,SystemResetWarning,0824.4,5.01,000.00,024.0,023.2,000.0,032.4,025.7,012.9,0000.0,0002.48,0007.84,0001.73
2024-04-22 12:33:00,SystemResetWarning,0824.6,5.00,000.00,024.0,023.2,000.0,032.4,025.7,012.8,0000.0,0002.51,0007.21,0001.71
2024-04-22 12:34:00,SystemResetWarning,0824.7,5.01,000.00,024.0,023.2,000.0,032.4,025.7,012.7,0000.0,0002.50,0006.81,0001.72
2024-04-22 12:35:00,SystemResetWarning,0824.7,5.00,000.00,024.0,023.2,000.0,032.4,025.7,012.9,0000.0,0002.53,0007.09,0001.72
2024-04-22 12:36:00,SystemResetWarning,0824.7,5.00,000.00,024.0,023.2,000.0,032.4,025.7,012.9,0000.0,0002.55,0007.88,0001.72
2024-04-22 12:37:00,SystemResetWarning,0824.7,4.99,000.00,024.0,023.2,000.0,032.4,025.7,012.9,0000.0,0002.51,0007.90,0001.72
2024-04-22 12:38:00,SystemResetWarning,0824.7,5.00,000.00,024.0,023.3,000.0,032.4,025.7,012.8,0000.0,0002.57,0007.90,0001.72
2024-04-22 12:39:00,SystemResetWarning,0824.7,5.00,000.00,024.0,023.3,000.0,032.4,025.7,012.7,0000.0,0002.57,0007.56,0001.70
2024-04-22 12:40:00,SystemResetWarning,0824.7,5.00,000.00,024.0,023.3,000.0,032.5,025.8,012.6,0000.0,0002.58,0007.90,0001.70
2024-04-22 12:41:00,SystemResetWarning,0824.6,5.00,000.00,024.0,023.3,000.0,032.5,025.9,012.6,0000.0,0002.62,0008.61,0001.71
2024-04-22 12:42:00,SystemResetWarning,0824.6,5.00,000.00,024.0,023.3,000.0,032.5,025.9,012.5,0000.0,0002.67,0008.21,0001.71
2024-04-22 12:43:00,SystemResetWarning,0824.6,5.00,000.00,024.0,023.3,000.0,032.5,025.9,012.7,0000.0,0002.69,0008.22,0001.70
2024-04-22 12:44:00,SystemResetWarning,0824.6,5.01,000.00,024.0,023.3,000.0,032.5,025.9,012.8,0000.0,0002.68,0008.02,0001.71
2024-04-22 12:45:00,SystemResetWarning,0824.6,5.00,000.00,024.1,023.4,000.0,032.5,025.9,012.8,0000.0,0002.70,0008.08,0001.70
2024-04-22 12:46:00,SystemResetWarning,0824.7,5.00,000.00,024.1,023.4,000.0,032.5,025.9,012.8,0000.0,0002.68,0008.13,0001.70
2024-04-22 12:47:00,SystemResetWarning,0824.5,5.00,000.00,024.1,023.4,000.0,032.5,025.9,012.4,0000.0,0002.66,0008.03,0001.69
2024-04-22 12:48:00,SystemResetWarning,0824.4,5.00,000.00,024.1,023.4,000.0,032.5,025.9,012.1,0000.0,0002.66,0008.31,0001.68
2024-04-22 12:49:00,SystemResetWarning,0824.4,5.01,000.00,024.1,023.3,000.0,032.5,025.9,012.5,0000.0,0002.63,0008.27,0001.68
2024-04-22 12:50:00,SystemResetWarning,0824.4,5.00,000.00,024.1,023.3,000.0,032.5,025.9,012.8,0000.0,0002.64,0008.28,0001.69
2024-04-22 12:51:00,SystemResetWarning,0824.4,5.00,000.00,024.1,023.3,000.0,032.5,025.9,013.0,0000.0,0002.59,0008.16,0001.68
2024-04-22 12:52:00,SystemResetWarning,0824.5,5.00,000.00,024.1,023.3,000.0,032.5,025.9,013.3,0000.0,0002.58,0007.42,0001.68
2024-04-22 12:53:00,SystemResetWarning,0824.6,5.00,000.00,024.1,023.3,000.0,032.5,025.9,013.5,0000.0,0002.57,0007.90,0001.68
2024-04-22 12:54:00,SystemResetWarning,0824.6,5.00,000.00,024.1,023.3,000.0,032.5,025.9,013.4,0000.0,0002.56,0007.69,0001.69
2024-04-22 12:55:00,SystemResetWarning,0824.6,4.99,000.00,024.1,023.3,000.0,032.5,025.9,012.7,0000.0,0002.57,0007.70,0001.69
2024-04-22 12:56:00,SystemResetWarning,0824.5,5.01,000.00,024.1,023.3,000.0,032.5,025.9,013.3,0000.0,0002.51,0007.61,0001.67
2024-04-22 12:57:00,SystemResetWarning,0824.5,5.01,000.00,024.1,023.3,000.0,032.5,025.9,013.2,0000.0,0002.55,0007.61,0001.66
2024-04-22 12:58:00,SystemResetWarning,0824.5,5.00,000.00,024.1,023.3,000.0,032.5,025.9,013.3,0000.0,0002.59,0007.69,0001.66
2024-04-22 12:59:00,SystemResetWarning,0824.5,5.00,000.00,024.1,023.3,000.0,032.5,025.9,013.9,0000.0,0002.56,0007.07,0001.66
